AFL2952 USCC-URSS

Flight info

Callsign AFL2952
Flight time 3h 22m
Altitude 34000
Route GERSI2F GERSI T797 MGR DCT KODUM N996 GARDU/K0848F360 N996 AGILA DCT ITAKA R227 BEMES A944 GUBOR G487 BINOL BINOL1K
Aircraft A320/M-SDE3FGHIRWY/LB1

Departure

Time 2026-04-25 22:04
Airport Kurchatov Chelyabinsk International Airport (USCC)

Arrival

Time 2026-04-26 01:27
Airport Sochi International Airport (URSS)
Time Latitude Longitude Altitude Speed Heading
2026-04-25 21:27 55.29907 61.50834 749 ft 0 kts 194°
2026-04-25 21:53 55.29908 61.50835 749 ft 1 kts 194°
2026-04-25 21:53 55.29924 61.50841 746 ft 3 kts 194°
2026-04-25 21:53 55.29943 61.50850 746 ft 3 kts 194°
2026-04-25 21:53 55.29955 61.50855 745 ft 2 kts 193°
2026-04-25 21:54 55.29969 61.50857 744 ft 3 kts 148°
2026-04-25 21:54 55.29981 61.50835 746 ft 3 kts 110°
2026-04-25 21:54 55.29986 61.50802 747 ft 2 kts 102°
2026-04-25 21:54 55.29989 61.50783 745 ft 2 kts 101°
2026-04-25 21:55 55.29993 61.50750 745 ft 3 kts 103°
2026-04-25 21:55 55.29997 61.50715 747 ft 3 kts 104°
2026-04-25 21:55 55.30001 61.50690 749 ft 1 kts 103°
2026-04-25 21:55 55.30001 61.50689 749 ft 0 kts 103°
2026-04-25 21:57 55.29997 61.50715 747 ft 0 kts 103°
2026-04-25 21:58 55.29992 61.50764 746 ft 10 kts 98°
2026-04-25 21:58 55.30031 61.50850 745 ft 9 kts 17°
2026-04-25 21:58 55.30087 61.50878 748 ft 7 kts 22°
2026-04-25 21:58 55.30094 61.50943 745 ft 5 kts 98°
2026-04-25 21:59 55.30082 61.51029 748 ft 11 kts 105°
2026-04-25 21:59 55.30058 61.51193 749 ft 17 kts 103°
2026-04-25 21:59 55.30026 61.51426 748 ft 20 kts 104°
2026-04-25 22:00 55.29953 61.51877 748 ft 18 kts 103°
2026-04-25 22:00 55.29924 61.52085 749 ft 16 kts 103°
2026-04-25 22:00 55.29899 61.52266 749 ft 14 kts 103°
2026-04-25 22:00 55.29893 61.52449 745 ft 15 kts 62°
2026-04-25 22:01 55.29962 61.52572 749 ft 13 kts 42°
2026-04-25 22:01 55.30026 61.52667 749 ft 11 kts 39°
2026-04-25 22:01 55.30089 61.52714 746 ft 9 kts 15°
2026-04-25 22:01 55.30119 61.52727 746 ft 0 kts 13°
2026-04-25 22:03 55.30134 61.52733 747 ft 11 kts 13°
2026-04-25 22:03 55.30239 61.52745 744 ft 16 kts 321°
2026-04-25 22:03 55.30274 61.52564 748 ft 16 kts 283°
2026-04-25 22:03 55.30326 61.52193 745 ft 61 kts 283°
2026-04-25 22:04 55.30476 61.51099 749 ft 121 kts 283°
2026-04-25 22:04 55.30715 61.49376 775 ft 166 kts 284°
2026-04-25 22:04 55.31026 61.47318 1190 ft 181 kts 286°
2026-04-25 22:04 55.31385 61.45141 1826 ft 188 kts 285°
2026-04-25 22:05 55.31922 61.43068 2368 ft 198 kts 303°
2026-04-25 22:05 55.32862 61.41124 2609 ft 221 kts 309°
2026-04-25 22:05 55.33965 61.39038 3005 ft 242 kts 309°
2026-04-25 22:05 55.35122 61.36836 3794 ft 246 kts 308°
2026-04-25 22:06 55.36261 61.34600 4728 ft 245 kts 307°
2026-04-25 22:06 55.37379 61.32324 5543 ft 248 kts 307°
2026-04-25 22:06 55.38500 61.29988 6304 ft 252 kts 307°
2026-04-25 22:06 55.39637 61.27590 7013 ft 257 kts 306°
2026-04-25 22:07 55.40758 61.25114 7714 ft 261 kts 300°
2026-04-25 22:07 55.41341 61.23258 8168 ft 262 kts 290°
2026-04-25 22:07 55.41922 61.19095 8682 ft 263 kts 271°
2026-04-25 22:07 55.41892 61.15957 8721 ft 262 kts 266°
2026-04-25 22:08 55.41841 61.12745 8723 ft 262 kts 267°
2026-04-25 22:08 55.41797 61.09536 8723 ft 262 kts 267°
2026-04-25 22:08 55.41757 61.06335 8729 ft 262 kts 268°
2026-04-25 22:08 55.41718 61.03163 8724 ft 263 kts 268°
2026-04-25 22:09 55.41677 60.99900 8725 ft 263 kts 268°
2026-04-25 22:09 55.41635 60.96730 8725 ft 263 kts 268°
2026-04-25 22:09 55.41591 60.93514 8723 ft 263 kts 267°
2026-04-25 22:09 55.41446 60.90315 8722 ft 262 kts 255°
2026-04-25 22:10 55.40672 60.87443 8726 ft 263 kts 232°
2026-04-25 22:10 55.39259 60.85404 8760 ft 268 kts 207°
2026-04-25 22:10 55.37418 60.84656 9448 ft 277 kts 182°
2026-04-25 22:10 55.35480 60.85144 10035 ft 290 kts 171°
2026-04-25 22:11 55.33427 60.85914 10206 ft 313 kts 171°
2026-04-25 22:11 55.31224 60.86775 10344 ft 335 kts 170°
2026-04-25 22:11 55.28879 60.87711 10488 ft 355 kts 170°
2026-04-25 22:11 55.26439 60.88694 10916 ft 364 kts 169°
2026-04-25 22:12 55.23958 60.89692 11524 ft 367 kts 170°
2026-04-25 22:12 55.21459 60.90689 12149 ft 369 kts 170°
2026-04-25 22:12 55.18945 60.91686 12801 ft 371 kts 170°
2026-04-25 22:12 55.17276 60.92345 13224 ft 373 kts 170°
2026-04-25 22:13 55.13908 60.93664 13977 ft 376 kts 170°
2026-04-25 22:13 55.11349 60.94627 14518 ft 377 kts 174°
2026-04-25 22:13 55.08746 60.94921 15040 ft 375 kts 185°
2026-04-25 22:13 55.06176 60.94295 15574 ft 373 kts 196°
2026-04-25 22:14 55.03730 60.92797 16110 ft 372 kts 207°
2026-04-25 22:14 55.01505 60.90508 16628 ft 373 kts 215°
2026-04-25 22:14 54.99364 60.87939 17155 ft 374 kts 215°
2026-04-25 22:14 54.97212 60.85363 17661 ft 376 kts 215°
2026-04-25 22:15 54.95052 60.82787 18139 ft 378 kts 215°
2026-04-25 22:15 54.92877 60.80202 18591 ft 379 kts 215°
2026-04-25 22:15 54.90698 60.77620 19036 ft 380 kts 215°
2026-04-25 22:16 54.86370 60.72511 20186 ft 372 kts 214°
2026-04-25 22:16 54.84234 60.69989 20695 ft 371 kts 214°
2026-04-25 22:16 54.82105 60.67469 21152 ft 371 kts 214°
2026-04-25 22:16 54.79974 60.64948 21581 ft 371 kts 214°
2026-04-25 22:17 54.77838 60.62431 21994 ft 371 kts 214°
2026-04-25 22:17 54.75702 60.59922 22415 ft 373 kts 215°
2026-04-25 22:17 54.73557 60.57315 22550 ft 379 kts 219°
2026-04-25 22:17 54.71588 60.54251 22822 ft 383 kts 223°
2026-04-25 22:18 54.69633 60.51097 23174 ft 385 kts 222°
2026-04-25 22:18 54.67671 60.47950 23493 ft 386 kts 222°
2026-04-25 22:18 54.65695 60.44792 23768 ft 388 kts 222°
2026-04-25 22:18 54.63708 60.41621 24017 ft 390 kts 222°
2026-04-25 22:19 54.61737 60.38483 24267 ft 392 kts 222°
2026-04-25 22:19 54.59729 60.35291 24511 ft 394 kts 222°
2026-04-25 22:19 54.57711 60.32084 24753 ft 396 kts 222°
2026-04-25 22:19 54.55680 60.28856 24991 ft 398 kts 222°
2026-04-25 22:20 54.53646 60.25627 25236 ft 400 kts 222°
2026-04-25 22:20 54.51590 60.22369 25383 ft 403 kts 222°
2026-04-25 22:20 54.49510 60.19086 25507 ft 408 kts 222°
2026-04-25 22:20 54.47412 60.15783 25722 ft 410 kts 222°
2026-04-25 22:21 54.45308 60.12471 25944 ft 411 kts 222°
2026-04-25 22:21 54.43194 60.09134 26179 ft 413 kts 222°
2026-04-25 22:21 54.41082 60.05808 26488 ft 411 kts 222°
2026-04-25 22:21 54.38984 60.02512 26993 ft 406 kts 221°
2026-04-25 22:22 54.36871 59.99334 27370 ft 404 kts 219°
2026-04-25 22:22 54.34709 59.96344 27684 ft 404 kts 218°
2026-04-25 22:22 54.32445 59.93390 28002 ft 404 kts 217°
2026-04-25 22:22 54.30216 59.90556 28284 ft 405 kts 216°
2026-04-25 22:23 54.27907 59.87632 28417 ft 409 kts 217°
2026-04-25 22:23 54.25659 59.84752 28616 ft 411 kts 217°
2026-04-25 22:23 54.23381 59.81790 28900 ft 411 kts 217°
2026-04-25 22:23 54.21115 59.78810 29216 ft 411 kts 217°
2026-04-25 22:24 54.18849 59.75821 29531 ft 411 kts 217°
2026-04-25 22:24 54.16584 59.72833 29832 ft 411 kts 217°
2026-04-25 22:24 54.14320 59.69857 30082 ft 411 kts 217°
2026-04-25 22:24 54.12049 59.66883 30329 ft 412 kts 217°
2026-04-25 22:25 54.09775 59.63914 30567 ft 412 kts 217°
2026-04-25 22:25 54.07499 59.60951 30809 ft 412 kts 217°
2026-04-25 22:25 54.05218 59.57988 30999 ft 414 kts 218°
2026-04-25 22:25 54.02922 59.55011 31107 ft 417 kts 218°
2026-04-25 22:26 54.00611 59.52012 31282 ft 419 kts 218°
2026-04-25 22:26 53.98294 59.49007 31522 ft 419 kts 218°
2026-04-25 22:26 53.95978 59.46011 31740 ft 419 kts 218°
2026-04-25 22:26 53.93666 59.43029 32070 ft 416 kts 218°
2026-04-25 22:27 53.91363 59.40067 32383 ft 415 kts 218°
2026-04-25 22:27 53.89064 59.37112 32648 ft 414 kts 218°
2026-04-25 22:27 53.86767 59.34163 32894 ft 414 kts 218°
2026-04-25 22:27 53.84469 59.31218 33139 ft 414 kts 218°
2026-04-25 22:28 53.82169 59.28279 33370 ft 415 kts 218°
2026-04-25 22:28 53.79859 59.25336 33509 ft 417 kts 218°
2026-04-25 22:28 53.77534 59.22388 33697 ft 418 kts 218°
2026-04-25 22:29 53.72852 59.16466 33773 ft 422 kts 218°
2026-04-25 22:29 53.68150 59.10520 33772 ft 422 kts 218°
2026-04-25 22:30 53.61124 59.01647 33772 ft 423 kts 218°
2026-04-25 22:30 53.57200 58.96714 33792 ft 425 kts 218°
2026-04-25 22:31 53.51638 58.89734 33774 ft 428 kts 218°
2026-04-25 22:31 53.46863 58.83768 33765 ft 427 kts 218°
2026-04-25 22:32 53.42088 58.77870 33785 ft 426 kts 214°
2026-04-25 22:32 53.36697 58.73746 33787 ft 429 kts 200°
2026-04-25 22:33 53.31003 58.70707 33798 ft 430 kts 201°
2026-04-25 22:33 53.25294 58.67658 33767 ft 432 kts 201°
2026-04-25 22:34 53.19566 58.64599 33768 ft 433 kts 201°
2026-04-25 22:34 53.13816 58.61542 33750 ft 434 kts 200°
2026-04-25 22:35 53.08061 58.58502 33793 ft 433 kts 200°
2026-04-25 22:35 53.02334 58.55482 33813 ft 432 kts 200°
2026-04-25 22:36 52.96618 58.52465 33809 ft 432 kts 201°
2026-04-25 22:36 52.90914 58.49467 33808 ft 434 kts 201°
2026-04-25 22:37 52.85155 58.46450 33809 ft 434 kts 201°
2026-04-25 22:37 52.79403 58.43445 33798 ft 435 kts 200°
2026-04-25 22:38 52.73628 58.40445 33825 ft 434 kts 200°
2026-04-25 22:38 52.68845 58.37962 33835 ft 434 kts 200°
2026-04-25 22:39 52.62088 58.34459 33842 ft 441 kts 201°
2026-04-25 22:39 52.57189 58.31929 33846 ft 446 kts 201°
2026-04-25 22:40 52.51243 58.28906 33846 ft 447 kts 201°
2026-04-25 22:40 52.45290 58.25932 33839 ft 446 kts 200°
2026-04-25 22:41 52.39366 58.22979 33853 ft 444 kts 200°
2026-04-25 22:41 52.33466 58.20014 33859 ft 443 kts 201°
2026-04-25 22:42 52.27603 58.17073 33855 ft 443 kts 200°
2026-04-25 22:42 52.21702 58.14154 33859 ft 443 kts 200°
2026-04-25 22:43 52.15800 58.11236 33862 ft 443 kts 200°
2026-04-25 22:43 52.09900 58.08308 33866 ft 444 kts 200°
2026-04-25 22:44 52.03995 58.05393 33866 ft 444 kts 200°
2026-04-25 22:44 51.98081 58.02476 33861 ft 445 kts 201°
2026-04-25 22:45 51.92148 57.99560 33855 ft 447 kts 201°
2026-04-25 22:45 51.86185 57.96654 33864 ft 448 kts 200°
2026-04-25 22:46 51.80201 57.93745 33850 ft 448 kts 200°
2026-04-25 22:46 51.74234 57.90830 33894 ft 448 kts 201°
2026-04-25 22:47 51.68273 57.87918 33886 ft 448 kts 201°
2026-04-25 22:47 51.62299 57.85025 33867 ft 449 kts 201°
2026-04-25 22:48 51.56309 57.82144 33879 ft 450 kts 201°
2026-04-25 22:48 51.50293 57.79249 33894 ft 451 kts 201°
2026-04-25 22:49 51.44323 57.76379 33893 ft 451 kts 200°
2026-04-25 22:49 51.38320 57.73509 33909 ft 450 kts 200°
2026-04-25 22:50 51.32304 57.70646 33893 ft 451 kts 201°
2026-04-25 22:50 51.26280 57.67769 33893 ft 453 kts 201°
2026-04-25 22:51 51.20233 57.64890 33905 ft 454 kts 201°
2026-04-25 22:51 51.14180 57.62025 33896 ft 454 kts 200°
2026-04-25 22:52 51.08130 57.59174 33932 ft 453 kts 200°
2026-04-25 22:52 51.03098 57.56806 33917 ft 453 kts 201°
2026-04-25 22:53 50.96018 57.53480 33937 ft 455 kts 201°
2026-04-25 22:53 50.89934 57.50635 33934 ft 456 kts 200°
2026-04-25 22:54 50.83850 57.47725 33926 ft 456 kts 202°
2026-04-25 22:54 50.77836 57.44595 33948 ft 455 kts 202°
2026-04-25 22:55 50.71875 57.41426 33950 ft 455 kts 203°
2026-04-25 22:55 50.65849 57.38284 33934 ft 457 kts 202°
2026-04-25 22:56 50.59792 57.35185 33944 ft 458 kts 202°
2026-04-25 22:56 50.53723 57.32098 33957 ft 459 kts 202°
2026-04-25 22:57 50.47641 57.28998 33964 ft 459 kts 202°
2026-04-25 22:57 50.41573 57.25905 33975 ft 459 kts 202°
2026-04-25 22:58 50.35482 57.22814 33974 ft 461 kts 202°
2026-04-25 22:58 50.29365 57.19720 33992 ft 462 kts 203°
2026-04-25 22:59 50.23712 57.15323 33976 ft 451 kts 220°
2026-04-25 22:59 50.18585 57.09679 33981 ft 451 kts 219°
2026-04-25 23:00 50.13450 57.04073 33964 ft 451 kts 219°
2026-04-25 23:00 50.08302 56.98486 33975 ft 451 kts 219°
2026-04-25 23:01 50.03148 56.92898 33989 ft 452 kts 219°
2026-04-25 23:01 49.97988 56.87310 34003 ft 452 kts 219°
2026-04-25 23:02 49.92828 56.81733 33989 ft 452 kts 220°
2026-04-25 23:02 49.87699 56.76208 33999 ft 452 kts 220°
2026-04-25 23:03 49.82524 56.70650 34002 ft 453 kts 220°
2026-04-25 23:03 49.77343 56.65096 34016 ft 453 kts 220°
2026-04-25 23:04 49.73001 56.60459 34016 ft 453 kts 220°
2026-04-25 23:04 49.66977 56.54020 34018 ft 453 kts 220°
2026-04-25 23:05 49.61803 56.48481 34030 ft 453 kts 220°
2026-04-25 23:05 49.56626 56.42957 34038 ft 453 kts 220°
2026-04-25 23:06 49.51439 56.37449 34045 ft 453 kts 220°
2026-04-25 23:06 49.46246 56.31950 34048 ft 453 kts 220°
2026-04-25 23:07 49.41056 56.26471 34059 ft 453 kts 220°
2026-04-25 23:07 49.35862 56.20996 34055 ft 453 kts 220°
2026-04-25 23:08 49.30678 56.15537 34057 ft 452 kts 220°
2026-04-25 23:08 49.25477 56.10092 34039 ft 452 kts 220°
2026-04-25 23:09 49.20282 56.04661 34056 ft 452 kts 220°
2026-04-25 23:09 49.15091 55.99237 34071 ft 452 kts 220°
2026-04-25 23:10 49.09899 55.93838 34076 ft 452 kts 220°
2026-04-25 23:10 49.04707 55.88439 34064 ft 451 kts 220°
2026-04-25 23:11 48.99513 55.83065 34089 ft 451 kts 220°
2026-04-25 23:11 48.94331 55.77706 34074 ft 450 kts 220°
2026-04-25 23:12 48.89177 55.72396 34096 ft 450 kts 220°
2026-04-25 23:12 48.83992 55.67068 34096 ft 450 kts 220°
2026-04-25 23:13 48.78810 55.61762 34095 ft 449 kts 220°
2026-04-25 23:13 48.73620 55.56474 34112 ft 449 kts 220°
2026-04-25 23:14 48.68448 55.51202 34116 ft 448 kts 220°
2026-04-25 23:14 48.63279 55.45950 34126 ft 448 kts 220°
2026-04-25 23:15 48.58108 55.40716 34120 ft 447 kts 220°
2026-04-25 23:15 48.52950 55.35498 34137 ft 446 kts 220°
2026-04-25 23:16 48.47799 55.30301 34135 ft 445 kts 220°
2026-04-25 23:16 48.42660 55.25133 34138 ft 444 kts 220°
2026-04-25 23:17 48.37516 55.19977 34121 ft 444 kts 220°
2026-04-25 23:17 48.32418 55.14879 34139 ft 442 kts 220°
2026-04-25 23:18 48.27305 55.09758 34144 ft 441 kts 220°
2026-04-25 23:18 48.22197 55.04665 34145 ft 441 kts 220°
2026-04-25 23:19 48.17096 54.99590 34122 ft 440 kts 219°
2026-04-25 23:19 48.11999 54.94540 34137 ft 439 kts 219°
2026-04-25 23:20 48.06909 54.89511 34138 ft 438 kts 219°
2026-04-25 23:20 48.01829 54.84490 34149 ft 438 kts 219°
2026-04-25 23:21 47.96748 54.79480 34152 ft 437 kts 219°
2026-04-25 23:21 47.91676 54.74494 34155 ft 436 kts 219°
2026-04-25 23:22 47.86610 54.69533 34166 ft 435 kts 219°
2026-04-25 23:23 47.79019 54.62115 34163 ft 434 kts 219°
2026-04-25 23:23 47.73966 54.57191 34134 ft 434 kts 219°
2026-04-25 23:24 47.68949 54.52321 34157 ft 433 kts 219°
2026-04-25 23:24 47.63905 54.47433 34162 ft 433 kts 219°
2026-04-25 23:25 47.58875 54.42554 34165 ft 432 kts 219°
2026-04-25 23:25 47.53844 54.37690 34166 ft 432 kts 219°
2026-04-25 23:26 47.48801 54.32847 34170 ft 431 kts 219°
2026-04-25 23:26 47.43772 54.28024 34178 ft 430 kts 219°
2026-04-25 23:27 47.38754 54.23206 34180 ft 430 kts 219°
2026-04-25 23:27 47.33738 54.18419 34169 ft 429 kts 219°
2026-04-25 23:28 47.28730 54.13644 34173 ft 429 kts 219°
2026-04-25 23:28 47.23725 54.08879 34173 ft 428 kts 219°
2026-04-25 23:29 47.18718 54.04122 34176 ft 428 kts 219°
2026-04-25 23:29 47.13745 53.99407 34178 ft 428 kts 219°
2026-04-25 23:30 47.08732 53.94673 34168 ft 428 kts 219°
2026-04-25 23:30 47.03728 53.89959 34186 ft 427 kts 219°
2026-04-25 23:31 46.98734 53.85265 34171 ft 427 kts 219°
2026-04-25 23:31 46.93738 53.80565 34183 ft 426 kts 219°
2026-04-25 23:32 46.88746 53.75888 34176 ft 426 kts 219°
2026-04-25 23:32 46.83775 53.71243 34200 ft 425 kts 219°
2026-04-25 23:33 46.79627 53.67380 34209 ft 425 kts 219°
2026-04-25 23:33 46.74651 53.62742 34216 ft 424 kts 219°
2026-04-25 23:34 46.69673 53.58123 34210 ft 424 kts 219°
2026-04-25 23:34 46.64703 53.53522 34197 ft 423 kts 219°
2026-04-25 23:35 46.59739 53.48918 34193 ft 423 kts 219°
2026-04-25 23:35 46.54776 53.44334 34202 ft 423 kts 219°
2026-04-25 23:36 46.49807 53.39764 34203 ft 423 kts 219°
2026-04-25 23:36 46.44838 53.35214 34192 ft 422 kts 219°
2026-04-25 23:37 46.39872 53.30663 34199 ft 422 kts 219°
2026-04-25 23:37 46.34912 53.26121 34208 ft 422 kts 219°
2026-04-25 23:38 46.29950 53.21589 34202 ft 422 kts 219°
2026-04-25 23:38 46.25012 53.17099 34190 ft 422 kts 219°
2026-04-25 23:39 46.20017 53.12560 34181 ft 421 kts 219°
2026-04-25 23:39 46.15091 53.08094 34195 ft 421 kts 219°
2026-04-25 23:40 46.10137 53.03611 34202 ft 420 kts 219°
2026-04-25 23:40 46.05183 52.99138 34192 ft 420 kts 219°
2026-04-25 23:41 46.00234 52.94674 34195 ft 419 kts 219°
2026-04-25 23:41 45.95291 52.90224 34205 ft 419 kts 219°
2026-04-25 23:42 45.90348 52.85790 34211 ft 419 kts 219°
2026-04-25 23:42 45.85402 52.81357 34212 ft 419 kts 219°
2026-04-25 23:43 45.80455 52.76934 34197 ft 419 kts 219°
2026-04-25 23:43 45.75505 52.72518 34208 ft 419 kts 219°
2026-04-25 23:44 45.70555 52.68104 34211 ft 419 kts 219°
2026-04-25 23:44 45.65608 52.63708 34217 ft 419 kts 219°
2026-04-25 23:45 45.60644 52.59320 34199 ft 420 kts 218°
2026-04-25 23:45 45.55676 52.54943 34206 ft 420 kts 218°
2026-04-25 23:46 45.50709 52.50551 34214 ft 420 kts 218°
2026-04-25 23:46 45.45763 52.46196 34201 ft 420 kts 218°
2026-04-25 23:47 45.40781 52.41829 34197 ft 420 kts 218°
2026-04-25 23:47 45.35810 52.37481 34211 ft 420 kts 218°
2026-04-25 23:48 45.30841 52.33127 34217 ft 419 kts 218°
2026-04-25 23:48 45.25874 52.28787 34216 ft 419 kts 218°
2026-04-25 23:49 45.20906 52.24452 34225 ft 419 kts 218°
2026-04-25 23:49 45.15936 52.20117 34225 ft 419 kts 218°
2026-04-25 23:50 45.10961 52.15799 34204 ft 419 kts 218°
2026-04-25 23:50 45.05983 52.11496 34222 ft 419 kts 218°
2026-04-25 23:51 45.01048 52.07242 34215 ft 418 kts 218°
2026-04-25 23:51 44.96091 52.02970 34229 ft 417 kts 218°
2026-04-25 23:52 44.91138 51.98715 34232 ft 417 kts 218°
2026-04-25 23:52 44.86180 51.94461 34235 ft 417 kts 218°
2026-04-25 23:53 44.81745 51.89434 34225 ft 404 kts 234°
2026-04-25 23:53 44.78773 51.82865 34270 ft 397 kts 245°
2026-04-25 23:53 44.77488 51.79430 34507 ft 397 kts 245°
2026-04-25 23:54 44.76197 51.75992 34734 ft 397 kts 245°
2026-04-25 23:54 44.74903 51.72565 34955 ft 397 kts 245°
2026-04-25 23:54 44.73601 51.69135 35164 ft 397 kts 245°
2026-04-25 23:54 44.72296 51.65708 35366 ft 398 kts 245°
2026-04-25 23:55 44.70992 51.62276 35540 ft 398 kts 244°
2026-04-25 23:55 44.69688 51.58837 35730 ft 399 kts 244°
2026-04-25 23:55 44.68385 51.55397 35916 ft 399 kts 244°
2026-04-25 23:55 44.67080 51.51953 36095 ft 399 kts 244°
2026-04-25 23:56 44.65770 51.48510 36218 ft 400 kts 244°
2026-04-25 23:56 44.63136 51.41617 36236 ft 401 kts 244°
2026-04-25 23:57 44.60496 51.34735 36246 ft 401 kts 244°
2026-04-25 23:57 44.57855 51.27857 36244 ft 400 kts 244°
2026-04-25 23:58 44.55234 51.21033 36252 ft 400 kts 244°
2026-04-25 23:58 44.52595 51.14174 36242 ft 400 kts 244°
2026-04-25 23:59 44.49943 51.07315 36249 ft 400 kts 244°
2026-04-25 23:59 44.47285 51.00471 36253 ft 400 kts 244°
2026-04-26 00:00 44.44627 50.93633 36253 ft 400 kts 244°
2026-04-26 00:00 44.41970 50.86797 36257 ft 400 kts 244°
2026-04-26 00:01 44.39309 50.79973 36259 ft 400 kts 244°
2026-04-26 00:01 44.36639 50.73155 36243 ft 400 kts 243°
2026-04-26 00:02 44.33966 50.66340 36242 ft 400 kts 243°
2026-04-26 00:02 44.31285 50.59528 36246 ft 400 kts 243°
2026-04-26 00:03 44.28604 50.52725 36246 ft 400 kts 243°
2026-04-26 00:03 44.25921 50.45931 36246 ft 400 kts 243°
2026-04-26 00:04 44.23252 50.39189 36233 ft 400 kts 243°
2026-04-26 00:04 44.20557 50.32402 36237 ft 400 kts 243°
2026-04-26 00:05 44.17857 50.25614 36240 ft 401 kts 243°
2026-04-26 00:05 44.15150 50.18818 36246 ft 401 kts 243°
2026-04-26 00:06 44.12435 50.12029 36241 ft 401 kts 243°
2026-04-26 00:06 44.09718 50.05252 36246 ft 402 kts 243°
2026-04-26 00:07 44.06987 49.98468 36247 ft 402 kts 243°
2026-04-26 00:07 44.04278 49.91732 36250 ft 402 kts 243°
2026-04-26 00:08 44.01550 49.84957 36239 ft 402 kts 243°
2026-04-26 00:08 43.98807 49.78193 36243 ft 402 kts 243°
2026-04-26 00:09 43.96056 49.71429 36247 ft 402 kts 243°
2026-04-26 00:09 43.93310 49.64672 36252 ft 402 kts 243°
2026-04-26 00:10 43.90553 49.57916 36252 ft 402 kts 242°
2026-04-26 00:10 43.88083 49.50987 36250 ft 400 kts 253°
2026-04-26 00:11 43.87315 49.43397 36254 ft 400 kts 269°
2026-04-26 00:11 43.87308 49.35680 36248 ft 401 kts 268°
2026-04-26 00:12 43.87284 49.27961 36252 ft 401 kts 268°
2026-04-26 00:12 43.87247 49.20234 36250 ft 401 kts 268°
2026-04-26 00:13 43.87213 49.12506 36259 ft 401 kts 268°
2026-04-26 00:13 43.87177 49.04772 36251 ft 402 kts 268°
2026-04-26 00:14 43.87125 48.97030 36253 ft 402 kts 268°
2026-04-26 00:14 43.87073 48.89338 36247 ft 402 kts 268°
2026-04-26 00:15 43.87019 48.81591 36250 ft 402 kts 268°
2026-04-26 00:15 43.86962 48.73844 36248 ft 402 kts 268°
2026-04-26 00:16 43.86890 48.66094 36239 ft 402 kts 268°
2026-04-26 00:16 43.86809 48.58343 36241 ft 402 kts 268°
2026-04-26 00:17 43.86732 48.50594 36253 ft 402 kts 268°
2026-04-26 00:17 43.86647 48.42836 36245 ft 402 kts 268°
2026-04-26 00:18 43.86557 48.35082 36241 ft 403 kts 268°
2026-04-26 00:18 43.86466 48.27328 36241 ft 403 kts 268°
2026-04-26 00:19 43.86374 48.19565 36224 ft 403 kts 268°
2026-04-26 00:19 43.86268 48.11810 36226 ft 403 kts 268°
2026-04-26 00:20 43.86161 48.04040 36228 ft 403 kts 268°
2026-04-26 00:20 43.86044 47.96273 36245 ft 403 kts 268°
2026-04-26 00:21 43.85921 47.88512 36239 ft 403 kts 268°
2026-04-26 00:21 43.85793 47.80737 36231 ft 403 kts 268°
2026-04-26 00:22 43.85663 47.72969 36216 ft 403 kts 268°
2026-04-26 00:22 43.85524 47.65193 36216 ft 404 kts 267°
2026-04-26 00:23 43.85385 47.57421 36214 ft 404 kts 267°
2026-04-26 00:23 43.85239 47.49690 36212 ft 404 kts 267°
2026-04-26 00:24 43.85089 47.41901 36221 ft 404 kts 267°
2026-04-26 00:24 43.84936 47.34109 36215 ft 405 kts 267°
2026-04-26 00:25 43.84771 47.26318 36210 ft 405 kts 267°
2026-04-26 00:25 43.84602 47.18511 36192 ft 405 kts 267°
2026-04-26 00:26 43.84427 47.10702 36191 ft 406 kts 267°
2026-04-26 00:26 43.84247 47.02878 36189 ft 406 kts 267°
2026-04-26 00:27 43.84094 46.96377 36192 ft 407 kts 267°
2026-04-26 00:27 43.83906 46.88546 36194 ft 407 kts 267°
2026-04-26 00:28 43.83708 46.80715 36200 ft 407 kts 267°
2026-04-26 00:28 43.83517 46.72874 36189 ft 407 kts 269°
2026-04-26 00:29 43.84163 46.65072 36186 ft 409 kts 277°
2026-04-26 00:29 43.85031 46.57300 36186 ft 409 kts 277°
2026-04-26 00:30 43.85888 46.49511 36183 ft 409 kts 277°
2026-04-26 00:30 43.86738 46.41724 36182 ft 409 kts 277°
2026-04-26 00:31 43.87573 46.33984 36191 ft 409 kts 277°
2026-04-26 00:31 43.88407 46.26189 36188 ft 409 kts 277°
2026-04-26 00:32 43.89239 46.18379 36185 ft 409 kts 277°
2026-04-26 00:32 43.90468 46.06668 36175 ft 409 kts 277°
2026-04-26 00:33 43.91282 45.98861 36177 ft 409 kts 277°
2026-04-26 00:33 43.92092 45.91047 36182 ft 409 kts 277°
2026-04-26 00:34 43.92389 45.83179 36174 ft 409 kts 271°
2026-04-26 00:34 43.92560 45.75285 36171 ft 410 kts 271°
2026-04-26 00:35 43.92731 45.67379 36166 ft 410 kts 271°
2026-04-26 00:35 43.92893 45.59472 36166 ft 410 kts 271°
2026-04-26 00:36 43.93047 45.51561 36162 ft 410 kts 271°
2026-04-26 00:36 43.93194 45.43696 36162 ft 411 kts 271°
2026-04-26 00:37 43.93339 45.35775 36140 ft 411 kts 271°
2026-04-26 00:37 43.93483 45.27830 36145 ft 412 kts 271°
2026-04-26 00:38 43.93621 45.19885 36145 ft 412 kts 271°
2026-04-26 00:38 43.93750 45.11933 36146 ft 412 kts 271°
2026-04-26 00:39 43.93869 45.03982 36146 ft 412 kts 271°
2026-04-26 00:39 43.93988 44.96028 36141 ft 412 kts 271°
2026-04-26 00:40 43.94099 44.88067 36138 ft 413 kts 271°
2026-04-26 00:40 43.94200 44.80100 36131 ft 413 kts 270°
2026-04-26 00:41 43.94306 44.72115 36123 ft 414 kts 271°
2026-04-26 00:41 43.94408 44.64134 36137 ft 414 kts 270°
2026-04-26 00:42 43.94499 44.56159 36130 ft 414 kts 270°
2026-04-26 00:42 43.94573 44.48222 36128 ft 414 kts 270°
2026-04-26 00:43 43.94654 44.40243 36128 ft 414 kts 270°
2026-04-26 00:43 43.94736 44.32251 36107 ft 414 kts 270°
2026-04-26 00:44 43.94804 44.24266 36117 ft 414 kts 270°
2026-04-26 00:44 43.94865 44.16285 36111 ft 414 kts 270°
2026-04-26 00:45 43.94925 44.08294 36095 ft 414 kts 270°
2026-04-26 00:45 43.94981 44.00312 36100 ft 414 kts 270°
2026-04-26 00:46 43.95024 43.92325 36076 ft 414 kts 270°
2026-04-26 00:46 43.95061 43.84334 36083 ft 414 kts 270°
2026-04-26 00:47 43.95099 43.76337 36083 ft 415 kts 270°
2026-04-26 00:47 43.95132 43.68336 36083 ft 415 kts 270°
2026-04-26 00:48 43.95149 43.60336 36087 ft 415 kts 270°
2026-04-26 00:48 43.95165 43.52335 36081 ft 414 kts 270°
2026-04-26 00:49 43.95185 43.44366 36099 ft 414 kts 269°
2026-04-26 00:49 43.95194 43.36398 36079 ft 415 kts 269°
2026-04-26 00:50 43.95190 43.28388 36092 ft 415 kts 269°
2026-04-26 00:50 43.95194 43.20378 36093 ft 415 kts 269°
2026-04-26 00:51 43.95189 43.12361 36102 ft 415 kts 269°
2026-04-26 00:51 43.95171 43.04349 36110 ft 415 kts 269°
2026-04-26 00:52 43.95149 42.96328 36110 ft 416 kts 269°
2026-04-26 00:52 43.95124 42.88303 36113 ft 416 kts 269°
2026-04-26 00:53 43.95093 42.80273 36106 ft 416 kts 269°
2026-04-26 00:53 43.95050 42.72233 36122 ft 417 kts 269°
2026-04-26 00:54 43.95008 42.64188 36116 ft 417 kts 269°
2026-04-26 00:54 43.94886 42.56151 36110 ft 417 kts 267°
2026-04-26 00:55 43.94636 42.48179 36101 ft 416 kts 267°
2026-04-26 00:55 43.94367 42.40154 36121 ft 416 kts 267°
2026-04-26 00:56 43.94127 42.32117 36108 ft 417 kts 267°
2026-04-26 00:56 43.93899 42.24080 36112 ft 417 kts 267°
2026-04-26 00:57 43.93656 42.16031 36111 ft 418 kts 267°
2026-04-26 00:57 43.93404 42.07976 36125 ft 418 kts 267°
2026-04-26 00:58 43.93151 41.99927 36124 ft 418 kts 267°
2026-04-26 00:58 43.92881 41.91868 36137 ft 418 kts 267°
2026-04-26 00:59 43.92615 41.83812 36143 ft 418 kts 267°
2026-04-26 00:59 43.92344 41.75757 36145 ft 418 kts 267°
2026-04-26 01:00 43.92072 41.67762 36150 ft 418 kts 267°
2026-04-26 01:00 43.91781 41.59716 36143 ft 418 kts 266°
2026-04-26 01:01 43.91482 41.51667 36143 ft 418 kts 266°
2026-04-26 01:01 43.91172 41.43621 36127 ft 418 kts 266°
2026-04-26 01:02 43.90850 41.35577 36142 ft 418 kts 266°
2026-04-26 01:02 43.90529 41.27535 36133 ft 417 kts 266°
2026-04-26 01:03 43.90210 41.19509 36114 ft 417 kts 266°
2026-04-26 01:03 43.89883 41.11474 36115 ft 417 kts 266°
2026-04-26 01:04 43.89552 41.03441 36111 ft 417 kts 266°
2026-04-26 01:04 43.89209 40.95417 36103 ft 417 kts 266°
2026-04-26 01:05 43.89034 40.91401 35893 ft 417 kts 266°
2026-04-26 01:05 43.88858 40.87390 35639 ft 417 kts 266°
2026-04-26 01:05 43.88681 40.83382 35441 ft 416 kts 266°
2026-04-26 01:05 43.88502 40.79381 35132 ft 416 kts 266°
2026-04-26 01:06 43.88317 40.75378 34889 ft 416 kts 264°
2026-04-26 01:06 43.87875 40.71474 34649 ft 416 kts 257°
2026-04-26 01:06 43.87018 40.67596 34406 ft 416 kts 249°
2026-04-26 01:06 43.85878 40.63961 34168 ft 417 kts 247°
2026-04-26 01:07 43.84702 40.60288 33584 ft 419 kts 247°
2026-04-26 01:07 43.83521 40.56575 32510 ft 424 kts 247°
2026-04-26 01:07 43.82330 40.52821 31541 ft 427 kts 247°
2026-04-26 01:07 43.81127 40.49039 30527 ft 432 kts 247°
2026-04-26 01:08 43.79902 40.45207 29268 ft 438 kts 247°
2026-04-26 01:08 43.78661 40.41341 28180 ft 440 kts 247°
2026-04-26 01:08 43.77415 40.37466 26981 ft 443 kts 247°
2026-04-26 01:08 43.76156 40.33555 25784 ft 447 kts 247°
2026-04-26 01:09 43.74902 40.29664 24627 ft 436 kts 247°
2026-04-26 01:09 43.73678 40.25874 23526 ft 426 kts 247°
2026-04-26 01:09 43.72500 40.22233 22433 ft 413 kts 247°
2026-04-26 01:09 43.71343 40.18680 21686 ft 404 kts 245°
2026-04-26 01:10 43.69933 40.15322 20916 ft 405 kts 237°
2026-04-26 01:10 43.68149 40.12317 20131 ft 406 kts 227°
2026-04-26 01:10 43.66008 40.09728 19653 ft 417 kts 219°
2026-04-26 01:10 43.63525 40.07566 19196 ft 424 kts 210°
2026-04-26 01:11 43.60857 40.05841 18725 ft 424 kts 207°
2026-04-26 01:11 43.58182 40.04165 18256 ft 421 kts 207°
2026-04-26 01:11 43.55518 40.02500 17780 ft 419 kts 207°
2026-04-26 01:11 43.52870 40.00848 17332 ft 416 kts 207°
2026-04-26 01:12 43.50246 39.99210 16889 ft 413 kts 207°
2026-04-26 01:12 43.47630 39.97576 16443 ft 411 kts 207°
2026-04-26 01:12 43.45013 39.96019 15997 ft 410 kts 202°
2026-04-26 01:12 43.42307 39.94753 15032 ft 414 kts 201°
2026-04-26 01:13 43.39585 39.93508 14364 ft 409 kts 201°
2026-04-26 01:13 43.36897 39.92289 13745 ft 403 kts 201°
2026-04-26 01:13 43.34287 39.91110 13563 ft 386 kts 201°
2026-04-26 01:13 43.31796 39.89988 13409 ft 369 kts 201°
2026-04-26 01:14 43.29406 39.88912 13277 ft 354 kts 201°
2026-04-26 01:14 43.27117 39.87879 13138 ft 339 kts 201°
2026-04-26 01:14 43.24917 39.86886 13017 ft 326 kts 201°
2026-04-26 01:14 43.22801 39.85928 12870 ft 314 kts 201°
2026-04-26 01:15 43.20784 39.85015 12607 ft 298 kts 201°
2026-04-26 01:15 43.18839 39.84132 12040 ft 292 kts 201°
2026-04-26 01:15 43.16922 39.83259 11408 ft 289 kts 201°
2026-04-26 01:15 43.15042 39.82399 10756 ft 288 kts 201°
2026-04-26 01:16 43.13147 39.81535 10141 ft 286 kts 201°
2026-04-26 01:16 43.11261 39.80682 9481 ft 284 kts 201°
2026-04-26 01:16 43.09388 39.79839 9050 ft 283 kts 201°
2026-04-26 01:16 43.07524 39.79001 8688 ft 281 kts 201°
2026-04-26 01:17 43.05678 39.78169 8341 ft 279 kts 200°
2026-04-26 01:17 43.03842 39.77342 7986 ft 277 kts 200°
2026-04-26 01:17 43.02153 39.76179 7777 ft 271 kts 225°
2026-04-26 01:17 43.01209 39.74010 7650 ft 268 kts 259°
2026-04-26 01:18 43.01353 39.71511 7525 ft 269 kts 293°
2026-04-26 01:18 43.02538 39.69564 7400 ft 272 kts 327°
2026-04-26 01:18 43.04343 39.68881 7273 ft 275 kts
2026-04-26 01:18 43.06161 39.69688 7152 ft 279 kts 30°
2026-04-26 01:19 43.07828 39.71074 7029 ft 281 kts 30°
2026-04-26 01:19 43.09501 39.72472 6634 ft 282 kts 31°
2026-04-26 01:19 43.11166 39.73865 6282 ft 278 kts 30°
2026-04-26 01:19 43.12824 39.75252 5777 ft 276 kts 31°
2026-04-26 01:20 43.14459 39.76621 5254 ft 276 kts 32°
2026-04-26 01:20 43.16090 39.77987 4815 ft 275 kts 33°
2026-04-26 01:20 43.17713 39.79349 4383 ft 273 kts 33°
2026-04-26 01:20 43.19397 39.80539 4008 ft 272 kts 17°
2026-04-26 01:21 43.21266 39.80915 3389 ft 273 kts
2026-04-26 01:21 43.23149 39.81252 2906 ft 270 kts 11°
2026-04-26 01:21 43.24950 39.81642 2559 ft 255 kts 12°
2026-04-26 01:21 43.26621 39.82015 2507 ft 233 kts 12°
2026-04-26 01:22 43.28085 39.82700 2441 ft 216 kts 31°
2026-04-26 01:22 43.29365 39.83658 2365 ft 202 kts 34°
2026-04-26 01:22 43.30521 39.84564 2291 ft 181 kts 34°
2026-04-26 01:22 43.31558 39.85383 2193 ft 164 kts 35°
2026-04-26 01:23 43.32499 39.86138 2132 ft 152 kts 38°
2026-04-26 01:23 43.33393 39.86873 2086 ft 148 kts 36°
2026-04-26 01:23 43.34284 39.87571 1972 ft 146 kts 32°
2026-04-26 01:23 43.35163 39.88242 1818 ft 143 kts 31°
2026-04-26 01:24 43.36034 39.88900 1646 ft 143 kts 31°
2026-04-26 01:24 43.36622 39.89343 1525 ft 142 kts 31°
2026-04-26 01:24 43.37469 39.89976 1357 ft 139 kts 30°
2026-04-26 01:24 43.38316 39.90599 1202 ft 137 kts 31°
2026-04-26 01:25 43.39135 39.91243 1032 ft 135 kts 30°
2026-04-26 01:25 43.39961 39.91845 888 ft 133 kts 30°
2026-04-26 01:25 43.40767 39.92454 696 ft 131 kts 30°
2026-04-26 01:25 43.41567 39.93054 481 ft 130 kts 29°
2026-04-26 01:26 43.42367 39.93648 304 ft 132 kts 30°
2026-04-26 01:26 43.43152 39.94241 162 ft 132 kts 31°
2026-04-26 01:26 43.43914 39.94823 64 ft 112 kts 28°
2026-04-26 01:26 43.44437 39.95217 82 ft 61 kts 28°
2026-04-26 01:27 43.44701 39.95413 89 ft 36 kts 28°
2026-04-26 01:27 43.44876 39.95547 89 ft 26 kts 29°
2026-04-26 01:27 43.44979 39.95571 91 ft 10 kts 299°
2026-04-26 01:27 43.45007 39.95542 94 ft 0 kts 340°
2026-04-26 01:28 43.45034 39.95528 91 ft 7 kts 337°
2026-04-26 01:28 43.45056 39.95488 93 ft 5 kts 276°
2026-04-26 01:29 43.45034 39.95393 89 ft 17 kts 244°
2026-04-26 01:29 43.44979 39.95232 88 ft 21 kts 245°
2026-04-26 01:29 43.44908 39.95032 82 ft 26 kts 243°
2026-04-26 01:29 43.44832 39.94808 72 ft 26 kts 244°
2026-04-26 01:30 43.44764 39.94606 73 ft 23 kts 244°
2026-04-26 01:30 43.44720 39.94478 70 ft 9 kts 245°
2026-04-26 01:30 43.44720 39.94439 66 ft 3 kts 311°
2026-04-26 01:30 43.44745 39.94419 66 ft 9 kts 330°
2026-04-26 01:31 43.44795 39.94386 67 ft 5 kts 335°
2026-04-26 01:31 43.44805 39.94379 69 ft 1 kts 334°
2026-04-26 01:31 43.44812 39.94375 66 ft 0 kts 334°